• Processing (Info)

  • MPEC 2014-X29 : 2014 WP368

    The following Minor Planet Electronic Circular may be linked-to from your own Web pages, but must not otherwise be redistributed electronically.

    A form allowing access to any MPEC is at the bottom of this page.


    Read MPEC 2014-X28 Read MPEC 2014-X30


    M.P.E.C. 2014-X29                                Issued 2014 Dec. 4, 14:06 UT
    
         The Minor Planet Electronic Circulars contain information on unusual
             minor planets and routine data on comets.  They are published
       on behalf of Commission 20 of the International Astronomical Union by the
              Minor Planet Center, Smithsonian Astrophysical Observatory,
                              Cambridge, MA 02138, U.S.A.
    
                 Prepared using the Tamkin Foundation Computer Network
    
                                  MPC@CFA.HARVARD.EDU
                URL https://www.minorplanetcenter.net/    ISSN 1523-6714
    
                                      2014 WP368
    
    Observations:
         K14Wa8P* C2014 11 30.41282 05 21 32.914+03 44 41.77         20.4 iLEX029F51
         K14Wa8P  C2014 11 30.42378 05 21 33.717+03 45 05.12         20.6 iLEX029F51
         K14Wa8P  C2014 11 30.44577 05 21 35.388+03 45 50.82         20.3 iLEX029F51
         K14Wa8P KC2014 12 01.49626 05 23 05.97 +04 23 00.1                oEX029291
         K14Wa8P KC2014 12 01.49846 05 23 06.13 +04 23 05.4                oEX029291
         K14Wa8P |C2014 12 03.25164 05 25 41.24 +05 28 37.1          20.1 VuEX029807
         K14Wa8P |C2014 12 03.26233 05 25 42.04 +05 29 01.5          20.4 VuEX029807
         K14Wa8P |C2014 12 03.27269 05 25 42.81 +05 29 25.6          20.5 VuEX029807
         K14Wa8P |C2014 12 04.23207 05 27 07.14 +06 06 19.8          20.4 VuEX029807
         K14Wa8P |C2014 12 04.23962 05 27 07.70 +06 06 36.9          20.4 VuEX029807
         K14Wa8P |C2014 12 04.24715 05 27 08.27 +06 06 54.7          20.5 VuEX029807
    
    Observer details:
    291 LPL/Spacewatch II.  Observer R. S. McMillan.  1.8-m f/2.7 reflector + CCD.
    807 Cerro Tololo.  Observers T. Linder, R. Holmes.  0.41-m f/11
        Ritchey-Chretien + CCD.
    F51 Pan-STARRS 1, Haleakala.  Observers B. Gibson, T. Goggia, N. Primak,
        A. Schultz, M. Willman.  Measurers K. Chambers, S. Chastel, L. Denneau,
        H. Flewelling, M. Huber, E. Magnier, E. Schunova, R. Wainscoat, C. Waters,
        R. Weryk.  1.8-m Ritchey-Chretien + CCD.
    
    Orbital elements:
    2014 WP368                                               Earth MOID = 0.2367 AU
    Epoch 2014 Dec. 9.0 TT = JDT 2457000.5                  MPC
    M 359.91793              (2000.0)            P               Q
    n   0.23577747     Peri.  343.45502     +0.20400315     -0.96540568
    a   2.5949830      Node    94.55177     +0.91563270     +0.12946002
    e   0.5310834      Incl.    9.37622     +0.34640940     +0.22634484
    P   4.18           H   22.3           G   0.15           U   8
    Residuals in seconds of arc
    141130 F51  0.0   0.1-    141201 291  0.1+  0.1+    141204 807  0.2-  0.4+
    141130 F51  0.3-  0.3+    141203 807  0.1+  0.3-    141204 807  0.2-  0.2-
    141130 F51  0.1+  0.1-    141203 807  0.1+  0.2-    141204 807  0.1-  0.1+
    141201 291  0.4+  0.4-    141203 807  0.0   0.4+
    
    Ephemeris:
    2014 WP368               a,e,i = 2.59, 0.53, 9                   q = 1.2168
    Date    TT    R. A. (2000) Decl.     Delta      r     Elong.  Phase     V
    2014 11 04    04 40 10.7 -04 59 45   0.3403  1.2804   143.1    27.7    21.7
    ...
    2014 11 19    05 04 22.2 -01 35 56   0.2798  1.2385   149.9    23.6    21.1
    ...
    2014 11 27    05 16 29.4 +01 52 36   0.2574  1.2249   154.9    20.0    20.8
    ...
    2014 12 03    05 25 19.5 +05 18 44   0.2458  1.2190   159.4    16.5    20.6
    2014 12 04    05 26 47.0 +05 56 56   0.2443  1.2183   160.2    15.9    20.5
    2014 12 05    05 28 14.2 +06 36 08   0.2429  1.2178   161.1    15.2    20.5
    ...
    2014 12 11    05 36 52.7 +10 49 23   0.2377  1.2170   166.3    11.0    20.3
    ...
    2014 12 19    05 48 13.2 +16 55 43   0.2390  1.2218   173.5     5.2    20.1
    ...
    2015 01 03    06 09 47.7 +27 33 47   0.2688  1.2484   169.3     8.4    20.5
    
    A. U. Tomatic                (C) Copyright 2014 MPC           M.P.E.C. 2014-X29
    

    Read MPEC 2014-X28 Read MPEC 2014-X30


    MPEC number:

    Enter an MPEC number in one of the following forms:

    • 1997-B01 (the full form)
    • J97B01 (the packed version of the full form)
    • B01 (the abbreviated form)